EJU85UT LPPT-LEBL

Flight info

Callsign EJU85UT
Flight time 1h 27m
Altitude 36000
Route ORVED DCT UREDI DCT DIPOL DCT RBO DCT PINAR DCT SEGRE DCT BRITO DCT PISUS DCT PONEN T600 CASPE
Aircraft A320/M-SDE2E3FGHIJ1RWXYZ/LB1

Departure

Time 2026-05-04 18:03
Airport Lisbon Humberto Delgado Airport (LPPT)

Arrival

Time 2026-05-04 19:30
Airport Josep Tarradellas Barcelona-El Prat Airport (LEBL)
Time Latitude Longitude Altitude Speed Heading
2026-05-04 17:44 38.76938 -9.13065 353 ft 0 kts 78°
2026-05-04 17:56 38.76935 -9.13084 360 ft 2 kts 78°
2026-05-04 17:56 38.76932 -9.13105 360 ft 2 kts 78°
2026-05-04 17:56 38.76928 -9.13127 359 ft 2 kts 90°
2026-05-04 17:57 38.76931 -9.13149 359 ft 2 kts 126°
2026-05-04 17:57 38.76934 -9.13156 359 ft 2 kts 146°
2026-05-04 17:57 38.76924 -9.13152 356 ft 0 kts 166°
2026-05-04 17:59 38.76889 -9.13141 352 ft 11 kts 167°
2026-05-04 17:59 38.76822 -9.13124 356 ft 10 kts 174°
2026-05-04 17:59 38.76756 -9.13318 360 ft 16 kts 258°
2026-05-04 18:00 38.76691 -9.13432 355 ft 13 kts 213°
2026-05-04 18:00 38.76648 -9.13525 353 ft 13 kts 258°
2026-05-04 18:00 38.76629 -9.13646 361 ft 15 kts 259°
2026-05-04 18:00 38.76607 -9.13779 351 ft 16 kts 257°
2026-05-04 18:01 38.76585 -9.13923 358 ft 17 kts 259°
2026-05-04 18:01 38.76526 -9.14061 351 ft 18 kts 228°
2026-05-04 18:01 38.76507 -9.14199 355 ft 12 kts 288°
2026-05-04 18:02 38.76564 -9.14373 355 ft 12 kts 301°
2026-05-04 18:02 38.76690 -9.14365 354 ft 36 kts 20°
2026-05-04 18:02 38.77144 -9.14122 360 ft 103 kts 22°
2026-05-04 18:02 38.77978 -9.13676 353 ft 155 kts 22°
2026-05-04 18:03 38.79053 -9.13133 753 ft 169 kts 18°
2026-05-04 18:03 38.80143 -9.12548 1503 ft 170 kts 17°
2026-05-04 18:03 38.81275 -9.11940 1986 ft 187 kts 17°
2026-05-04 18:03 38.82501 -9.11065 2307 ft 215 kts 27°
2026-05-04 18:04 38.83847 -9.10006 2780 ft 238 kts 27°
2026-05-04 18:04 38.85311 -9.08860 3430 ft 251 kts 27°
2026-05-04 18:04 38.88356 -9.06481 5208 ft 261 kts 28°
2026-05-04 18:05 38.89739 -9.04920 6011 ft 274 kts 51°
2026-05-04 18:05 38.90659 -9.02731 6822 ft 281 kts 62°
2026-05-04 18:05 38.91505 -9.00446 7634 ft 285 kts 62°
2026-05-04 18:05 38.92360 -8.98128 8437 ft 291 kts 62°
2026-05-04 18:06 38.94127 -8.93355 10052 ft 300 kts 61°
2026-05-04 18:06 38.95049 -8.90883 10488 ft 318 kts 62°
2026-05-04 18:06 38.96043 -8.88234 10769 ft 339 kts 62°
2026-05-04 18:07 38.97081 -8.85465 11350 ft 347 kts 62°
2026-05-04 18:07 38.98134 -8.82641 12049 ft 353 kts 62°
2026-05-04 18:07 38.99214 -8.79731 12755 ft 358 kts 62°
2026-05-04 18:07 39.00306 -8.76784 13452 ft 363 kts 62°
2026-05-04 18:08 39.01399 -8.73825 14098 ft 369 kts 62°
2026-05-04 18:08 39.02506 -8.70828 14702 ft 374 kts 62°
2026-05-04 18:08 39.03624 -8.67796 15307 ft 378 kts 62°
2026-05-04 18:08 39.04758 -8.64725 15902 ft 383 kts 62°
2026-05-04 18:09 39.07074 -8.58463 17094 ft 391 kts 61°
2026-05-04 18:09 39.09453 -8.52079 18268 ft 400 kts 61°
2026-05-04 18:10 39.10667 -8.48832 18777 ft 405 kts 61°
2026-05-04 18:10 39.11893 -8.45550 19275 ft 409 kts 61°
2026-05-04 18:10 39.13131 -8.42234 19781 ft 413 kts 61°
2026-05-04 18:10 39.14379 -8.38878 20282 ft 417 kts 61°
2026-05-04 18:11 39.15635 -8.35491 20788 ft 421 kts 61°
2026-05-04 18:11 39.16904 -8.32064 21281 ft 426 kts 61°
2026-05-04 18:11 39.18185 -8.28600 21770 ft 430 kts 61°
2026-05-04 18:11 39.19476 -8.25110 22268 ft 434 kts 61°
2026-05-04 18:12 39.20799 -8.21530 22764 ft 438 kts 61°
2026-05-04 18:12 39.22119 -8.17957 23258 ft 443 kts 61°
2026-05-04 18:12 39.23447 -8.14357 23723 ft 447 kts 61°
2026-05-04 18:12 39.24783 -8.10727 24126 ft 450 kts 61°
2026-05-04 18:13 39.26122 -8.07080 24515 ft 454 kts 61°
2026-05-04 18:13 39.27482 -8.03373 24893 ft 457 kts 61°
2026-05-04 18:13 39.30234 -7.95841 25648 ft 464 kts 61°
2026-05-04 18:14 39.31614 -7.92063 26007 ft 467 kts 61°
2026-05-04 18:14 39.33001 -7.88266 26368 ft 470 kts 61°
2026-05-04 18:14 39.34398 -7.84439 26723 ft 473 kts 61°
2026-05-04 18:15 39.37224 -7.76691 27415 ft 479 kts 61°
2026-05-04 18:15 39.40069 -7.68848 28088 ft 485 kts 61°
2026-05-04 18:15 39.41497 -7.64895 28420 ft 488 kts 61°
2026-05-04 18:16 39.42939 -7.60897 28733 ft 491 kts 61°
2026-05-04 18:16 39.44386 -7.56887 29048 ft 494 kts 61°
2026-05-04 18:16 39.45843 -7.52847 29365 ft 496 kts 61°
2026-05-04 18:17 39.48776 -7.44706 29939 ft 502 kts 61°
2026-05-04 18:17 39.50275 -7.40537 30212 ft 505 kts 61°
2026-05-04 18:17 39.53242 -7.32258 30696 ft 509 kts 61°
2026-05-04 18:18 39.54734 -7.28085 30944 ft 511 kts 61°
2026-05-04 18:18 39.56229 -7.23901 31167 ft 513 kts 61°
2026-05-04 18:18 39.57732 -7.19698 31405 ft 515 kts 61°
2026-05-04 18:18 39.59217 -7.15533 31726 ft 514 kts 62°
2026-05-04 18:19 39.62215 -7.07088 32371 ft 513 kts 62°
2026-05-04 18:19 39.63705 -7.02882 32682 ft 512 kts 62°
2026-05-04 18:19 39.65193 -6.98677 33009 ft 512 kts 62°
2026-05-04 18:20 39.66675 -6.94487 33323 ft 512 kts 62°
2026-05-04 18:20 39.68159 -6.90284 33642 ft 511 kts 62°
2026-05-04 18:20 39.69637 -6.86094 33936 ft 511 kts 62°
2026-05-04 18:20 39.71115 -6.81895 34005 ft 511 kts 62°
2026-05-04 18:21 39.74064 -6.73496 34000 ft 511 kts 62°
2026-05-04 18:21 39.77009 -6.65103 33998 ft 511 kts 62°
2026-05-04 18:22 39.79946 -6.56694 33983 ft 510 kts 62°
2026-05-04 18:22 39.82876 -6.48267 34364 ft 510 kts 62°
2026-05-04 18:23 39.84334 -6.44063 34651 ft 509 kts 62°
2026-05-04 18:23 39.85785 -6.39873 34926 ft 508 kts 63°
2026-05-04 18:23 39.87227 -6.35669 35192 ft 507 kts 63°
2026-05-04 18:23 39.88639 -6.31475 35454 ft 506 kts 64°
2026-05-04 18:24 39.90035 -6.27271 35716 ft 505 kts 64°
2026-05-04 18:24 39.91423 -6.23066 35921 ft 505 kts 64°
2026-05-04 18:24 39.94209 -6.14613 35980 ft 512 kts 64°
2026-05-04 18:25 39.97052 -6.06010 35973 ft 520 kts 64°
2026-05-04 18:25 39.99916 -5.97347 35972 ft 522 kts 64°
2026-05-04 18:26 40.02779 -5.88640 35976 ft 522 kts 64°
2026-05-04 18:26 40.05180 -5.81338 35977 ft 522 kts 65°
2026-05-04 18:27 40.08024 -5.72613 35976 ft 523 kts 65°
2026-05-04 18:27 40.10864 -5.63874 35981 ft 523 kts 65°
2026-05-04 18:28 40.13681 -5.55215 35986 ft 523 kts 65°
2026-05-04 18:28 40.16519 -5.46466 35986 ft 523 kts 65°
2026-05-04 18:29 40.19348 -5.37700 35989 ft 523 kts 65°
2026-05-04 18:29 40.22166 -5.28922 35992 ft 524 kts 65°
2026-05-04 18:30 40.26398 -5.15748 35996 ft 524 kts 66°
2026-05-04 18:31 40.29207 -5.06933 35995 ft 524 kts 66°
2026-05-04 18:31 40.32009 -4.98130 35999 ft 524 kts 66°
2026-05-04 18:32 40.34597 -4.89979 35996 ft 523 kts 66°
2026-05-04 18:32 40.37389 -4.81161 35998 ft 523 kts 66°
2026-05-04 18:33 40.40167 -4.72357 35995 ft 522 kts 66°
2026-05-04 18:33 40.42920 -4.63591 35999 ft 522 kts 66°
2026-05-04 18:34 40.45697 -4.54696 35996 ft 522 kts 66°
2026-05-04 18:34 40.48426 -4.45940 35994 ft 521 kts 66°
2026-05-04 18:35 40.51188 -4.37068 35994 ft 521 kts 66°
2026-05-04 18:35 40.53931 -4.28248 36000 ft 521 kts 66°
2026-05-04 18:36 40.56663 -4.19421 36001 ft 521 kts 67°
2026-05-04 18:36 40.59387 -4.10581 36005 ft 521 kts 67°
2026-05-04 18:37 40.61800 -4.02722 36005 ft 521 kts 67°
2026-05-04 18:37 40.64501 -3.93890 36009 ft 521 kts 67°
2026-05-04 18:38 40.67211 -3.85025 36012 ft 521 kts 67°
2026-05-04 18:38 40.69886 -3.76230 36010 ft 521 kts 67°
2026-05-04 18:39 40.72589 -3.67304 36012 ft 521 kts 67°
2026-05-04 18:39 40.75252 -3.58493 36008 ft 521 kts 68°
2026-05-04 18:40 40.77940 -3.49566 35998 ft 520 kts 68°
2026-05-04 18:40 40.80582 -3.40754 35988 ft 520 kts 68°
2026-05-04 18:41 40.83261 -3.31822 35978 ft 519 kts 68°
2026-05-04 18:41 40.85748 -3.22890 35969 ft 518 kts 76°
2026-05-04 18:42 40.87545 -3.13718 35975 ft 518 kts 76°
2026-05-04 18:42 40.89362 -3.04515 35974 ft 518 kts 76°
2026-05-04 18:43 40.91179 -2.95289 35976 ft 518 kts 76°
2026-05-04 18:43 40.92977 -2.86067 35979 ft 518 kts 76°
2026-05-04 18:44 40.94764 -2.76846 35984 ft 518 kts 76°
2026-05-04 18:44 40.96556 -2.67616 35985 ft 517 kts 76°
2026-05-04 18:45 40.98332 -2.58394 35989 ft 517 kts 76°
2026-05-04 18:45 41.00101 -2.49122 35991 ft 516 kts 76°
2026-05-04 18:46 41.01849 -2.39918 35993 ft 516 kts 76°
2026-05-04 18:46 41.03595 -2.30705 35989 ft 515 kts 76°
2026-05-04 18:47 41.05296 -2.21717 35990 ft 515 kts 77°
2026-05-04 18:47 41.07033 -2.12508 35989 ft 514 kts 77°
2026-05-04 18:48 41.08760 -2.03254 35989 ft 514 kts 77°
2026-05-04 18:48 41.10466 -1.94049 35992 ft 514 kts 77°
2026-05-04 18:49 41.12177 -1.84846 35998 ft 514 kts 77°
2026-05-04 18:49 41.13875 -1.75640 35993 ft 514 kts 77°
2026-05-04 18:50 41.15559 -1.66438 35993 ft 513 kts 77°
2026-05-04 18:50 41.17240 -1.57234 35997 ft 513 kts 77°
2026-05-04 18:51 41.18909 -1.48032 36006 ft 512 kts 77°
2026-05-04 18:51 41.20571 -1.38833 36004 ft 512 kts 77°
2026-05-04 18:52 41.22230 -1.29649 36012 ft 511 kts 77°
2026-05-04 18:52 41.23872 -1.20455 36014 ft 511 kts 78°
2026-05-04 18:53 41.25506 -1.11268 36003 ft 511 kts 78°
2026-05-04 18:53 41.27132 -1.02082 35997 ft 510 kts 78°
2026-05-04 18:54 41.28757 -0.92896 35998 ft 510 kts 78°
2026-05-04 18:54 41.30370 -0.83714 35992 ft 510 kts 78°
2026-05-04 18:55 41.31974 -0.74539 35991 ft 509 kts 78°
2026-05-04 18:55 41.34355 -0.60785 35991 ft 509 kts 79°
2026-05-04 18:56 41.34956 -0.51436 35978 ft 502 kts 98°
2026-05-04 18:56 41.33989 -0.42345 35973 ft 499 kts 102°
2026-05-04 18:57 41.32960 -0.33217 35965 ft 499 kts 102°
2026-05-04 18:57 41.31940 -0.24065 35962 ft 499 kts 102°
2026-05-04 18:58 41.30908 -0.14949 35961 ft 499 kts 102°
2026-05-04 18:58 41.29847 -0.05807 35960 ft 499 kts 102°
2026-05-04 18:59 41.28787 0.03312 35955 ft 499 kts 102°
2026-05-04 18:59 41.27727 0.12427 35953 ft 499 kts 103°
2026-05-04 19:00 41.27338 0.21660 35223 ft 506 kts 84°
2026-05-04 19:00 41.28166 0.26194 34242 ft 502 kts 75°
2026-05-04 19:00 41.28853 0.29178 33548 ft 498 kts 75°
2026-05-04 19:01 41.30164 0.34967 32231 ft 489 kts 75°
2026-05-04 19:01 41.30811 0.37877 31607 ft 483 kts 76°
2026-05-04 19:01 41.32041 0.43508 30102 ft 480 kts 76°
2026-05-04 19:01 41.32664 0.46397 29427 ft 475 kts 76°
2026-05-04 19:02 41.33560 0.50562 28474 ft 466 kts 76°
2026-05-04 19:02 41.34445 0.54675 27510 ft 458 kts 76°
2026-05-04 19:02 41.35315 0.58710 26619 ft 450 kts 76°
2026-05-04 19:02 41.36175 0.62692 26131 ft 445 kts 76°
2026-05-04 19:03 41.37029 0.66650 25940 ft 445 kts 76°
2026-05-04 19:03 41.37880 0.70604 25724 ft 443 kts 76°
2026-05-04 19:03 41.38723 0.74531 25229 ft 439 kts 76°
2026-05-04 19:03 41.39557 0.78416 24759 ft 434 kts 76°
2026-05-04 19:04 41.40386 0.82266 24292 ft 430 kts 76°
2026-05-04 19:04 41.41220 0.86150 23585 ft 433 kts 76°
2026-05-04 19:04 41.42018 0.89899 22930 ft 432 kts 76°
2026-05-04 19:04 41.42837 0.93752 22360 ft 429 kts 76°
2026-05-04 19:05 41.43642 0.97545 21838 ft 425 kts 76°
2026-05-04 19:05 41.44443 1.01320 21332 ft 422 kts 76°
2026-05-04 19:05 41.45247 1.05118 20750 ft 421 kts 76°
2026-05-04 19:05 41.46052 1.08924 20151 ft 420 kts 76°
2026-05-04 19:06 41.46843 1.12671 19651 ft 418 kts 76°
2026-05-04 19:06 41.47626 1.16380 19162 ft 415 kts 76°
2026-05-04 19:06 41.48403 1.20070 18701 ft 412 kts 76°
2026-05-04 19:06 41.49151 1.23642 18252 ft 409 kts 76°
2026-05-04 19:07 41.49908 1.27254 17728 ft 406 kts 76°
2026-05-04 19:07 41.50666 1.30866 17217 ft 403 kts 76°
2026-05-04 19:07 41.51415 1.34443 16807 ft 397 kts 76°
2026-05-04 19:07 41.52147 1.37938 16664 ft 383 kts 76°
2026-05-04 19:08 41.52840 1.41248 16530 ft 359 kts 76°
2026-05-04 19:08 41.53467 1.44246 16176 ft 346 kts 76°
2026-05-04 19:08 41.54106 1.47311 15614 ft 340 kts 76°
2026-05-04 19:08 41.54626 1.50361 15008 ft 334 kts 86°
2026-05-04 19:09 41.54720 1.53424 14396 ft 329 kts 92°
2026-05-04 19:09 41.54730 1.56466 13802 ft 326 kts 92°
2026-05-04 19:09 41.54747 1.59476 13144 ft 323 kts 92°
2026-05-04 19:09 41.54769 1.62506 12472 ft 320 kts 92°
2026-05-04 19:10 41.54792 1.65416 12094 ft 318 kts 91°
2026-05-04 19:10 41.54813 1.68394 11841 ft 320 kts 91°
2026-05-04 19:10 41.54834 1.71390 11585 ft 318 kts 91°
2026-05-04 19:10 41.54856 1.74345 11339 ft 317 kts 91°
2026-05-04 19:11 41.54877 1.77236 11094 ft 316 kts 91°
2026-05-04 19:11 41.54895 1.80175 10849 ft 315 kts 91°
2026-05-04 19:11 41.54909 1.83057 10610 ft 314 kts 91°
2026-05-04 19:11 41.54923 1.85998 10332 ft 314 kts 91°
2026-05-04 19:12 41.54909 1.88901 9979 ft 311 kts 96°
2026-05-04 19:12 41.54188 1.94515 9624 ft 299 kts 103°
2026-05-04 19:12 41.53837 1.97151 9485 ft 279 kts 103°
2026-05-04 19:13 41.53512 1.99622 9285 ft 265 kts 103°
2026-05-04 19:13 41.53255 2.01561 9178 ft 259 kts 103°
2026-05-04 19:13 41.52935 2.03949 9090 ft 259 kts 103°
2026-05-04 19:13 41.52742 2.05379 9018 ft 259 kts 103°
2026-05-04 19:14 41.52628 2.06222 8979 ft 259 kts 103°
2026-05-04 19:14 41.52332 2.08402 8857 ft 259 kts 103°
2026-05-04 19:14 41.52044 2.10770 8716 ft 259 kts 97°
2026-05-04 19:14 41.52039 2.13158 8573 ft 260 kts 90°
2026-05-04 19:15 41.52114 2.15596 8440 ft 260 kts 90°
2026-05-04 19:15 41.52183 2.18026 8304 ft 259 kts 90°
2026-05-04 19:15 41.52249 2.20430 8183 ft 258 kts 90°
2026-05-04 19:15 41.52195 2.22809 8061 ft 255 kts 104°
2026-05-04 19:16 41.51588 2.24985 7952 ft 248 kts 126°
2026-05-04 19:16 41.50497 2.26715 7771 ft 241 kts 146°
2026-05-04 19:16 41.49083 2.27850 7598 ft 235 kts 161°
2026-05-04 19:16 41.47592 2.28748 7421 ft 236 kts 158°
2026-05-04 19:17 41.46327 2.30151 7247 ft 244 kts 127°
2026-05-04 19:17 41.45786 2.32302 7062 ft 251 kts 92°
2026-05-04 19:17 41.46160 2.34487 6897 ft 253 kts 65°
2026-05-04 19:17 41.46752 2.36686 6710 ft 252 kts 85°
2026-05-04 19:18 41.46767 2.39044 6497 ft 250 kts 96°
2026-05-04 19:18 41.46639 2.41350 6284 ft 249 kts 97°
2026-05-04 19:18 41.46522 2.43623 6047 ft 249 kts 89°
2026-05-04 19:18 41.46696 2.45950 5812 ft 248 kts 90°
2026-05-04 19:19 41.46641 2.48237 5586 ft 246 kts 96°
2026-05-04 19:19 41.46502 2.50512 5358 ft 245 kts 97°
2026-05-04 19:19 41.46355 2.52771 5133 ft 244 kts 97°
2026-05-04 19:19 41.46207 2.55015 4907 ft 243 kts 97°
2026-05-04 19:20 41.46061 2.57250 4657 ft 241 kts 97°
2026-05-04 19:20 41.45922 2.59467 4400 ft 238 kts 97°
2026-05-04 19:20 41.45780 2.61658 4147 ft 244 kts 97°
2026-05-04 19:20 41.45453 2.63933 3993 ft 244 kts 118°
2026-05-04 19:21 41.44438 2.65574 3994 ft 224 kts 153°
2026-05-04 19:21 41.42982 2.66147 3995 ft 214 kts 187°
2026-05-04 19:21 41.41624 2.65521 3999 ft 207 kts 221°
2026-05-04 19:21 41.40827 2.63965 4001 ft 207 kts 255°
2026-05-04 19:22 41.40648 2.62069 4002 ft 209 kts 265°
2026-05-04 19:22 41.40610 2.60122 3997 ft 210 kts 267°
2026-05-04 19:22 41.40591 2.58172 3998 ft 211 kts 267°
2026-05-04 19:22 41.40568 2.56211 4002 ft 218 kts 267°
2026-05-04 19:23 41.40545 2.54127 4003 ft 229 kts 267°
2026-05-04 19:23 41.40521 2.51980 4001 ft 240 kts 267°
2026-05-04 19:23 41.40490 2.49700 4001 ft 249 kts 267°
2026-05-04 19:23 41.40455 2.47379 4003 ft 252 kts 267°
2026-05-04 19:24 41.40416 2.45048 4005 ft 252 kts 267°
2026-05-04 19:24 41.40374 2.42717 4006 ft 252 kts 267°
2026-05-04 19:24 41.40334 2.40384 3999 ft 252 kts 267°
2026-05-04 19:24 41.40051 2.38109 4005 ft 250 kts 249°
2026-05-04 19:25 41.39332 2.35989 4001 ft 250 kts 244°
2026-05-04 19:25 41.38637 2.34051 3805 ft 232 kts 245°
2026-05-04 19:25 41.37989 2.32165 3536 ft 217 kts 246°
2026-05-04 19:25 41.37470 2.30633 3305 ft 211 kts 246°
2026-05-04 19:26 41.36864 2.28845 3027 ft 208 kts 246°
2026-05-04 19:26 41.36271 2.27100 2757 ft 206 kts 246°
2026-05-04 19:26 41.35679 2.25357 2473 ft 206 kts 246°
2026-05-04 19:26 41.35292 2.24219 2294 ft 205 kts 246°
2026-05-04 19:27 41.34719 2.22536 2023 ft 195 kts 246°
2026-05-04 19:27 41.34168 2.20916 1802 ft 189 kts 246°
2026-05-04 19:27 41.33749 2.19686 1588 ft 183 kts 246°
2026-05-04 19:27 41.33258 2.18248 1331 ft 167 kts 246°
2026-05-04 19:28 41.32809 2.16931 1126 ft 148 kts 246°
2026-05-04 19:28 41.32528 2.16106 998 ft 141 kts 245°
2026-05-04 19:28 41.32271 2.15353 855 ft 138 kts 245°
2026-05-04 19:28 41.32029 2.14643 747 ft 135 kts 245°
2026-05-04 19:29 41.31679 2.13616 590 ft 135 kts 245°
2026-05-04 19:29 41.31287 2.12470 407 ft 134 kts 245°
2026-05-04 19:29 41.30907 2.11354 239 ft 131 kts 245°
2026-05-04 19:29 41.30539 2.10271 55 ft 131 kts 245°
2026-05-04 19:30 41.30223 2.09352 6 ft 112 kts 245°
2026-05-04 19:30 41.29976 2.08631 8 ft 63 kts 244°
2026-05-04 19:30 41.29831 2.08317 6 ft 24 kts 224°
2026-05-04 19:30 41.29761 2.08248 4 ft 7 kts 217°
2026-05-04 19:31 41.29718 2.08206 4 ft 8 kts 213°
2026-05-04 19:31 41.29667 2.08200 3 ft 7 kts 170°
2026-05-04 19:31 41.29652 2.08216 4 ft 4 kts 91°
2026-05-04 19:31 41.29676 2.08302 3 ft 12 kts 67°
2026-05-04 19:32 41.29707 2.08396 3 ft 10 kts 64°